Regional Weather Roundup
Issued by NWS Newport/Morehead, NC

Current Version | Previous Version | Text Only | Print | Product List | Glossary Off
Versions: 1 2 3 4 5 6 7 8 9 10 11 12 13 14 15 16 17 18 19 20 21 22 23 24 25 26 27 28 29 30 31 32 33 34 35 36 37 38 39 40 41 42 43 44 45 46 47 48 49 50
000 ASUS42 KMHX 252225 RWRMHX WEATHER ROUNDUP FOR EASTERN NORTH CAROLINA NATIONAL WEATHER SERVICE NEWPORT/MOREHEAD CITY NC 600 PM EDT WED MAY 25 2016 NOTE: "FAIR" INDICATES FEW OR NO CLOUDS BELOW 12,000 FEET WITH NO SIGNIFICANT WEATHER AND/OR OBSTRUCTIONS TO VISIBILITY NCZ015>017-031-032-045>047-102-103-252300- NORTH COAST CITY SKY/WX TMP DP RH WIND PRES REMARKS EDENTON SUNNY 86 55 33 SW5 30.15S ELIZABETH CITY SUNNY 85 56 37 S10 30.14S KITTY HAWK CLEAR 84 60 44 S6 30.15F MANTEO MOSUNNY 78 64 61 S9 30.16F $$ NCZ045>047-081-094-103-104-252300- CENTRAL COAST CITY SKY/WX TMP DP RH WIND PRES REMARKS FRISCO SUNNY 75 68 78 SW10 30.19F $$ NCZ095-097-098-100-101-252300- SOUTHERN COAST CITY SKY/WX TMP DP RH WIND PRES REMARKS BEAUFORT SUNNY 76 68 76 S13 30.19F CEDAR ISLAND NOT AVBL JACKSONVILLE SUNNY 81 56 42 S12G20 30.18S PINEY ISLAND CLEAR N/A N/A N/A SW15G22 30.18F WILMINGTON SUNNY 82 59 45 S13 30.18S $$ NCZ011>013-027>030-043-044-078>080-089-090>093-098-252300- COASTAL PLAIN CITY SKY/WX TMP DP RH WIND PRES REMARKS AHOSKIE NOT AVBL CLINTON SUNNY 86 59 39 CALM 30.16S ELIZABETHTOWN SUNNY 87 54 32 SW5 30.16F GOLDSBORO SUNNY 88 53 29 SW6 30.14F GREENVILLE MOSUNNY 86 57 37 SW6 30.16S HAVELOCK SUNNY 81 58 45 S12 30.19S KENANSVILLE SUNNY 85 51 30 SE3 30.16F KINSTON MOSUNNY 84 57 39 SW3 30.16F NEW BERN SUNNY 83 59 44 S8 30.18R RICHLANDS SUNNY 83 60 45 S13 30.17F ROCKY MOUNT MOSUNNY 86 55 34 SW9 30.15S WASHINGTON SUNNY 85 56 36 SW5 30.15S WHITEVILLE MOSUNNY 84 64 50 S10 30.16S $$ AMZ130-135-150-152-154-156-158-170-250-252-270-ANZ085-086-088-633-658-670-252300- MARINE OBSERVATIONS STATION/POSITION TIME TEMP WIND PRES WAVE SWELL AIR SEA DIR/SP/G HT/PER HT/PER (UTC) (F) (DEG/KT/KT) (MB) (FT/S) (FT/S) CHESAPEAKE LIGHT 2200 76 130/ 13/ 15 1021.3 64 E VA BEACH 2150 65 61 180/ 6/ 6 1021.1 3/ 9 2/ 9 DUCK 2200 61 150/ 7/ 8 1020.2 2 E DUCK 2111 64 N/A 2/ 9 OREGON INLET 2200 73 190/ 15/ 17 1021.4 13E OREGON INLT 2200 68 N/A 2/ 8 2/ 8 HATTERAS CG 2200 70 200/ 7/ 11 1021.8 DIAMOND BUOY 2150 75 74 230/ 8/ 10 1022.5 2/ 8 2/ 8 CAPE LOOKOUT 2200 76 210/ 10/ 12 1022.1 BEAUFORT LAB 2200 71 200/ 11/ 13 1021.7 30 SE NEW RVR IN 2155 74 N/A 2/ 8 27 SE WRIGHTSVLE 2208 76 74 210/ 10/ 12 1022.9 5 SE WRIGHTSVLE 2108 75 73 200/ 12/ 16 1023.3 225 S CAPE HAT 2150 75 79 70/ 6/ 8 1023.0 2/ 7 2/ 7 41 SE CHARLESTON 2150 79 80 200/ 6/ 6 1022.6 2/ 9 2/ 9 $$

USA.gov is the U.S. government's official web portal to all federal, state and local government web resources and services.